Theta_e
312 308 302 305 293 289 286 290 292 295 297 297 299 299 302 300 298 294 304 303 306 308 317 322 334 342 347 348 348 349 349 350 350 349 349 348 348 348 347 347 349 349 347 346 345 344 343 342 342
308 310 309 298 286 283 283 288 290 293 295 297 297 298 300 296 299 298 298 302 304 308 314 319 328 334 340 341 347 347 348 350 349 349 349 349 348 348 347 347 348 348 346 345 344 343 341 341 341
302 308 299 292 284 280 282 288 289 293 295 295 294 299 299 296 296 296 297 300 301 304 311 319 326 325 330 335 339 345 346 348 349 349 349 349 349 349 349 348 348 347 347 345 343 342 341 342 342
299 301 293 288 284 285 286 286 289 291 293 293 293 290 295 295 296 295 299 300 300 300 309 319 324 321 322 324 329 335 342 346 347 349 348 349 350 349 349 348 347 347 347 346 344 345 345 344 344
299 293 286 283 282 285 286 288 288 288 287 290 290 288 291 294 296 297 298 300 299 300 306 310 319 319 319 320 321 325 332 340 345 346 348 348 348 348 347 348 347 346 346 345 346 345 345 344 342
292 289 282 280 282 285 286 287 287 286 286 288 289 286 293 294 296 297 299 299 301 301 303 305 311 316 317 318 318 320 325 329 336 344 345 346 347 347 346 346 346 346 346 346 345 344 343 343 342
289 284 281 281 282 284 285 287 283 283 284 285 287 285 292 294 297 297 298 299 300 301 302 302 303 307 311 314 318 319 320 326 326 333 341 342 342 344 344 343 345 345 345 345 345 343 343 342 341
290 287 281 278 279 281 284 285 284 283 283 289 287 284 283 291 297 298 298 298 299 299 300 300 300 302 303 306 314 317 319 324 326 327 330 333 335 337 337 336 339 343 343 343 343 343 342 342 339
289 281 278 278 280 281 284 283 285 286 283 286 287 286 291 296 298 296 295 295 296 298 298 299 298 299 300 302 306 310 314 320 324 326 328 329 335 337 335 334 335 340 340 341 341 341 340 338 335
285 278 280 281 281 280 283 283 284 284 284 285 286 291 294 295 294 292 292 292 293 293 295 297 296 298 298 300 301 304 309 312 316 322 325 331 335 335 336 331 330 334 334 338 339 340 337 331 333
284 281 284 284 285 285 285 285 286 284 283 285 285 289 292 292 293 292 291 291 291 292 294 296 296 296 296 298 299 300 304 306 311 316 321 324 329 334 333 334 332 334 326 335 336 336 335 332 329
282 287 287 287 289 287 285 287 285 285 286 290 289 290 291 291 291 291 290 291 291 292 293 294 295 295 295 296 297 299 301 303 305 309 316 323 323 329 334 333 333 333 333 333 333 334 332 328 326
284 286 289 289 289 288 289 286 285 286 288 289 290 291 291 291 290 290 291 292 291 291 292 292 293 294 295 296 297 297 297 299 302 305 309 316 318 319 327 333 333 333 333 333 331 332 328 326 324
286 287 287 289 288 288 286 284 285 286 288 289 290 291 290 289 289 289 290 290 290 291 291 292 292 293 294 294 294 295 296 298 300 303 306 310 315 318 318 323 333 333 333 333 332 331 328 326 324
287 283 285 286 287 286 286 282 282 286 288 288 289 289 289 289 289 288 290 290 290 290 291 291 292 293 292 293 294 295 296 299 299 301 304 308 311 315 317 318 318 332 333 333 332 331 329 325 324
283 280 276 284 286 287 285 278 285 287 286 286 286 287 288 288 289 288 290 289 289 289 289 291 293 292 292 293 293 294 296 297 298 300 302 305 308 310 312 315 317 322 328 332 331 330 327 325 323
277 269 276 280 286 285 283 279 286 287 286 285 285 285 286 287 287 288 289 288 288 288 289 289 290 290 291 292 293 295 295 297 299 300 301 303 306 309 312 316 319 324 327 327 329 329 327 324 322
270 272 277 277 282 284 281 281 285 286 285 283 283 284 284 285 286 288 288 288 288 287 288 288 289 290 290 291 292 293 293 294 296 299 301 302 304 308 312 313 314 321 325 327 327 326 327 325 323
278 277 275 278 284 280 279 279 282 285 283 281 281 282 282 284 286 287 287 287 286 286 287 287 287 288 289 289 290 290 290 292 294 296 299 302 304 306 309 309 312 318 323 324 326 325 322 322 322
278 272 272 279 282 280 278 278 282 283 282 282 281 281 282 283 284 285 285 286 285 285 285 286 287 287 289 289 291 291 291 293 294 296 298 300 302 305 308 310 312 317 319 323 325 324 322 321 322
277 272 273 276 279 278 276 274 277 281 282 283 282 281 281 282 282 283 284 284 284 283 284 285 286 286 288 290 291 291 292 295 295 296 297 300 302 303 308 310 313 315 318 319 322 325 323 319 319
270 280 280 278 270 265 276 266 274 278 280 282 279 280 280 281 281 283 283 283 283 283 284 284 285 286 288 289 289 288 288 290 294 296 297 300 302 305 308 311 312 312 314 316 321 324 324 321 316
277 281 279 277 265 268 269 264 273 277 277 279 279 280 280 281 281 281 282 283 283 283 282 283 284 285 286 288 288 288 289 292 295 297 297 298 300 302 309 310 311 311 313 316 319 321 323 322 319
282 276 274 273 266 260 265 265 270 273 276 276 279 279 280 280 281 281 282 282 282 282 282 282 283 285 287 287 287 288 290 291 293 294 297 298 299 302 307 310 311 311 312 313 316 319 321 321 321
276 265 260 260 258 262 261 266 271 276 278 278 277 279 279 280 279 279 280 280 281 281 281 282 283 283 285 286 287 289 289 290 290 298 297 298 300 303 306 308 308 309 311 315 316 316 320 320 320
274 267 262 256 259 261 262 263 271 277 279 279 279 279 280 279 279 279 280 280 280 280 280 280 280 281 284 285 286 288 290 288 292 299 300 302 301 303 306 305 307 308 311 312 312 315 319 320 320
271 267 274 260 258 260 262 267 275 278 274 276 276 278 277 277 278 278 279 279 279 279 279 279 279 281 282 283 285 287 288 287 289 296 299 299 300 303 301 302 301 302 303 306 309 309 312 317 318
272 276 265 263 256 254 259 257 268 267 271 274 274 274 275 275 277 277 277 279 279 279 279 279 279 279 281 283 284 286 287 289 288 295 296 297 299 300 300 300 297 297 298 299 303 305 308 313 317
269 265 265 265 267 259 259 264 268 270 269 271 271 274 273 272 275 275 276 278 279 279 278 278 278 278 280 282 283 285 286 288 290 292 294 296 296 296 296 297 297 298 298 298 298 302 305 309 313
274 268 271 265 260 264 265 266 268 268 267 266 272 273 272 270 273 273 276 276 277 277 277 277 278 278 279 281 283 284 286 287 288 290 292 294 294 295 295 295 295 295 296 297 297 298 300 302 310
Wind_Speed
9 7 1 5 5 5 2 4 3 2 3 3 5 2 9 4 4 3 6 4 6 7 8 10 18 18 15 10 9 9 10 11 12 12 12 12 12 12 12 12 10 11 12 12 12 12 12 12 12
5 4 4 3 6 3 5 4 5 4 3 5 3 2 7 3 3 3 4 8 6 5 6 9 16 19 19 16 9 9 9 11 12 13 13 13 13 14 14 13 11 11 13 13 13 13 13 12 12
3 0 4 5 4 4 4 1 1 3 7 6 3 6 4 3 3 3 4 7 7 6 5 7 15 19 20 20 18 16 9 10 13 13 14 14 15 15 14 13 13 12 13 15 15 15 14 13 12
2 5 5 5 4 1 1 3 5 5 7 10 4 6 6 6 3 2 5 8 8 7 6 9 16 19 21 19 19 19 20 11 12 13 15 15 15 15 15 15 13 13 13 14 15 15 16 14 14
4 3 4 2 1 4 2 2 5 6 3 6 8 2 5 3 4 5 6 7 8 8 7 7 17 19 19 20 20 19 20 20 12 13 14 15 15 16 17 16 15 15 14 14 15 16 16 17 15
4 3 3 3 4 4 1 6 2 4 3 5 5 2 3 5 4 7 7 9 8 10 9 9 14 17 18 18 17 18 18 19 19 14 15 15 15 15 16 17 16 16 15 15 15 15 17 16 18
6 4 4 4 4 3 1 4 3 0 3 2 3 2 6 6 5 4 7 8 8 9 11 10 11 14 19 19 17 16 17 16 17 20 16 15 15 14 15 15 17 17 17 15 14 16 19 18 17
4 4 4 4 1 2 6 5 2 2 2 5 1 2 2 2 5 6 6 7 7 8 8 9 10 10 11 10 14 18 17 15 16 15 17 14 13 13 13 13 14 18 17 15 15 16 19 19 18
2 6 1 1 1 4 3 4 2 3 1 4 2 3 2 1 1 8 6 7 6 7 6 7 8 9 10 12 10 15 17 15 13 12 12 10 7 9 10 11 12 16 17 17 17 18 18 18 16
6 4 5 2 2 1 3 2 4 5 5 3 2 4 5 1 5 8 6 6 6 8 8 6 7 8 9 9 10 10 10 9 9 9 10 9 8 8 9 10 14 14 14 16 17 19 16 12 8
2 3 2 2 2 1 2 4 3 2 5 6 4 6 6 2 5 6 4 4 4 3 4 7 8 7 6 8 8 5 5 6 7 10 8 8 9 7 6 5 6 8 9 7 10 11 9 10 6
4 4 2 2 1 1 3 4 7 5 9 6 7 6 4 3 4 4 4 3 4 5 6 7 7 8 9 4 6 7 6 6 6 8 11 7 5 9 7 6 7 7 6 8 7 7 8 8 8
3 2 5 4 6 4 3 5 5 9 11 8 8 6 6 6 4 2 1 1 4 5 5 7 7 7 9 10 6 7 9 7 8 8 10 7 7 7 9 8 8 8 8 9 8 9 9 9 9
2 4 6 4 3 2 2 4 4 6 4 8 6 7 3 5 2 0 2 3 5 6 7 5 6 7 7 10 12 10 9 9 8 8 8 10 7 7 7 8 8 9 9 10 10 10 10 10 9
2 5 6 1 1 2 1 7 8 7 3 7 7 4 5 4 2 1 3 3 4 5 6 7 8 7 7 10 9 9 9 10 8 8 10 11 10 9 8 7 6 9 9 12 11 12 11 10 10
5 5 6 4 1 2 5 9 12 8 6 10 8 4 4 3 1 2 3 5 5 6 7 7 7 7 8 10 9 9 10 9 10 9 8 10 11 11 10 7 5 7 8 9 13 13 13 13 12
8 1 2 9 1 3 3 9 15 5 6 9 6 6 4 2 5 4 5 6 7 7 7 7 7 8 9 11 11 8 11 10 9 9 9 10 11 11 10 7 7 7 8 10 4 9 13 12 12
3 2 4 6 5 4 9 19 21 12 6 9 8 6 2 4 4 6 7 7 7 7 7 7 8 10 11 9 9 7 8 9 10 9 9 11 9 11 10 6 7 9 7 5 6 7 8 13 11
3 3 5 7 7 6 8 14 23 15 7 4 6 5 2 6 6 7 6 7 7 8 10 12 13 13 11 7 6 8 8 9 10 10 13 12 10 11 11 8 8 8 9 10 11 9 12 7 10
2 1 7 7 3 6 5 17 17 8 4 6 7 4 4 7 8 7 9 10 10 11 12 14 14 15 11 10 10 10 11 10 11 10 13 14 13 12 11 10 9 10 8 10 12 13 8 7 10
4 5 3 5 6 5 8 9 5 3 1 5 5 2 4 6 9 9 12 13 13 13 12 13 14 16 13 14 11 11 12 10 10 9 10 12 13 13 13 13 10 9 8 9 10 12 13 9 11
3 4 3 3 5 3 5 8 6 3 4 5 1 4 7 8 8 9 13 14 14 15 13 13 14 15 14 14 14 16 14 13 10 11 10 11 11 12 13 13 10 9 6 8 9 11 10 12 12
8 4 4 1 3 4 5 4 10 2 6 8 6 6 8 8 9 11 13 14 15 14 13 12 14 14 15 13 15 13 15 12 11 10 16 14 13 12 12 13 9 9 6 8 10 9 12 11 11
4 5 6 4 4 4 5 5 10 4 5 2 3 6 8 9 9 11 12 13 14 13 12 12 13 15 12 14 16 15 16 16 13 16 12 10 9 9 12 8 8 7 5 6 7 10 11 12 12
7 8 6 8 6 7 4 2 15 6 5 6 5 8 9 8 9 10 12 12 14 15 15 13 14 15 14 14 15 15 16 14 18 16 7 8 8 7 9 8 6 4 4 3 6 7 10 12 12
2 7 7 6 3 7 3 8 10 6 6 4 5 8 9 9 8 9 10 11 12 14 14 14 15 16 14 14 15 13 13 9 13 7 3 4 6 5 1 4 4 4 3 2 3 6 8 11 12
4 1 3 5 1 3 4 10 13 1 4 7 7 7 9 8 9 10 9 10 11 11 12 13 14 15 13 14 13 12 11 11 14 11 4 2 4 2 4 4 4 3 5 4 5 5 6 8 12
5 2 4 4 2 7 8 8 9 6 10 11 8 9 9 6 11 10 7 10 10 10 10 12 12 13 15 13 11 11 10 10 12 10 4 4 3 4 5 4 4 5 5 5 5 6 7 8 8
1 2 3 4 4 6 5 10 11 11 9 10 9 9 9 9 11 8 10 8 9 10 11 12 12 14 13 12 11 11 11 9 9 8 5 3 5 6 5 4 3 5 8 7 6 7 9 11 10
5 7 6 6 7 4 3 14 5 8 8 6 10 9 8 8 9 7 9 7 9 11 12 12 13 13 13 13 13 11 9 9 8 6 6 4 3 3 4 4 3 3 5 5 5 6 5 8 13
Wind_Direction
328 304 148 46 65 66 268 275 297 18 52 306 294 80 112 51 48 161 202 11 5 10 356 6 12 8 0 268 208 200 197 197 187 182 180 178 175 173 169 170 165 165 172 169 167 170 167 162 153
329 322 49 88 90 81 277 310 30 348 301 315 61 86 42 81 49 89 52 330 26 12 354 7 17 16 10 1 309 224 201 202 208 195 193 191 188 184 183 183 182 182 182 175 179 173 168 166 162
307 6 81 103 113 160 182 319 319 298 345 16 62 56 71 34 49 97 297 332 15 17 5 14 20 19 15 9 358 350 236 210 210 212 201 200 199 193 195 193 191 193 193 185 181 176 171 171 175
44 14 28 92 188 273 74 317 306 340 348 16 355 60 53 287 75 22 345 4 5 4 17 16 26 20 12 8 359 355 345 249 221 215 216 210 206 200 200 199 196 199 204 194 188 182 170 174 170
37 58 71 72 226 133 358 299 27 47 20 332 344 26 110 29 57 37 20 23 26 12 16 13 21 16 14 7 357 352 346 341 263 231 221 221 217 211 208 206 200 201 204 206 199 191 175 173 170
43 92 82 197 188 144 339 343 56 37 0 321 40 24 89 352 23 353 22 33 40 34 18 14 5 7 2 1 358 349 344 335 331 281 239 230 224 221 219 213 209 208 205 203 209 199 177 172 165
111 91 196 189 185 110 42 307 60 112 319 5 283 340 151 31 336 9 43 41 34 27 20 12 7 2 358 349 344 350 341 327 328 323 297 242 234 226 222 215 213 212 207 203 200 193 178 176 174
98 94 150 20 3 131 348 356 36 53 292 315 174 263 23 284 339 48 46 37 38 28 18 12 5 360 355 345 331 341 335 327 317 308 305 283 233 228 224 217 219 213 210 203 192 180 177 180 177
70 65 142 103 100 171 2 11 307 301 256 342 283 67 64 256 348 41 16 11 17 17 15 9 356 355 349 341 341 336 327 325 319 302 290 287 262 231 225 223 217 221 211 207 199 189 184 183 181
73 100 179 178 150 216 303 18 304 356 336 275 315 339 344 60 72 65 42 19 13 359 354 3 355 348 343 337 335 328 323 320 317 311 309 302 250 239 217 214 212 217 211 207 205 196 187 180 184
28 137 154 160 144 212 293 307 290 335 311 217 233 290 303 26 70 74 48 28 358 329 350 344 341 338 336 331 327 319 318 312 311 308 302 293 298 236 224 217 215 220 214 211 203 195 189 186 178
81 40 51 219 33 325 281 292 311 208 238 232 267 232 240 23 97 81 51 26 351 340 320 326 330 331 326 311 313 309 313 313 307 301 299 298 299 294 227 217 210 204 201 204 196 187 183 175 181
58 324 308 303 312 263 287 253 249 262 265 276 262 237 240 118 123 101 51 341 313 322 311 312 330 321 315 314 306 304 304 300 293 297 292 289 288 284 295 229 220 205 197 196 192 188 178 179 178
313 292 284 293 266 255 299 296 25 273 255 292 290 273 97 133 137 286 341 329 347 326 321 311 307 292 299 309 304 300 294 290 288 288 285 286 278 275 276 287 235 215 202 194 194 190 187 186 186
301 351 342 288 306 282 55 300 226 240 318 271 275 330 160 160 189 303 337 354 312 307 299 300 304 313 310 296 294 298 293 292 286 279 282 279 278 270 272 267 260 264 208 203 200 197 188 185 189
27 42 5 301 348 355 86 267 276 257 280 265 286 169 181 210 224 350 340 332 322 301 295 286 302 303 298 299 294 288 289 287 283 279 273 270 270 270 267 266 252 242 286 223 213 201 193 191 187
12 217 315 316 323 264 198 273 260 261 258 268 248 198 211 327 336 341 343 329 313 296 293 295 293 297 303 298 291 288 294 295 291 280 274 266 266 264 258 254 261 243 224 218 229 231 183 189 193
251 348 265 257 281 353 294 279 286 295 257 249 204 201 190 322 311 322 320 313 309 307 298 294 302 301 301 293 285 283 287 281 278 281 274 267 262 256 254 247 261 271 267 243 199 185 207 196 197
163 229 240 262 271 310 248 280 286 297 277 232 173 181 282 331 298 311 311 313 301 308 312 312 310 307 299 293 291 290 288 284 279 279 277 279 265 252 242 246 244 249 250 240 220 202 170 191 154
182 176 271 288 307 334 305 286 293 295 234 177 173 182 351 313 312 315 326 324 313 309 305 308 306 307 302 294 284 288 285 274 270 270 275 271 271 265 244 233 232 240 244 244 229 205 191 179 187
239 189 242 248 321 257 305 292 313 335 77 144 114 42 320 299 308 311 320 320 314 308 306 304 303 300 294 296 293 291 285 276 273 263 264 260 256 254 245 233 222 232 241 246 232 214 191 180 186
300 186 262 286 40 272 43 281 297 282 206 198 204 325 315 328 304 303 315 311 310 311 308 305 301 302 296 302 292 288 287 282 277 275 269 270 268 262 244 226 216 221 227 243 247 225 205 188 178
236 342 302 160 128 39 319 64 268 272 236 228 242 306 326 298 288 305 314 310 309 307 308 304 299 294 296 299 297 288 285 284 283 277 269 256 261 261 248 218 209 217 216 232 238 237 209 202 183
316 17 33 49 95 14 241 122 279 237 220 210 260 297 285 296 311 308 303 303 302 306 307 303 299 295 303 302 297 286 285 289 285 280 251 246 255 256 236 205 207 205 211 244 235 229 238 208 199
50 49 343 351 5 227 323 355 245 257 228 208 261 303 296 294 303 297 301 307 313 316 313 310 309 305 305 304 297 295 292 294 287 275 235 244 257 249 222 190 198 203 180 247 255 248 228 225 207
69 135 148 247 265 276 359 238 255 231 193 212 256 270 280 276 277 285 301 306 307 309 307 310 312 310 313 310 302 299 293 289 294 308 287 256 244 244 190 187 188 229 247 222 252 273 241 230 223
258 69 150 99 103 26 253 288 294 152 286 264 267 274 281 288 300 294 297 293 293 300 311 315 312 308 308 303 304 305 301 298 292 300 303 306 312 35 65 38 17 321 293 278 265 259 268 242 229
145 155 46 4 338 297 288 280 246 281 253 252 276 279 283 302 294 297 294 286 293 305 313 312 309 307 305 305 307 304 297 292 288 285 272 8 338 0 29 18 2 318 295 280 270 259 251 254 237
17 349 45 127 149 189 291 268 223 232 228 230 243 260 270 284 282 300 288 284 305 314 319 317 316 313 310 311 308 303 305 297 282 294 336 315 1 10 352 344 331 305 292 285 283 269 266 266 251
173 185 158 132 263 233 197 266 237 235 240 207 253 263 274 264 282 290 281 297 324 323 326 323 320 317 313 313 311 310 307 309 310 315 336 307 345 5 336 328 318 316 300 291 290 293 264 263 241